When you browse on this site, cookies collect data to enhance your experience and personalize the content and advertising you see.
Visit our Privacy Policy to learn more. By continuing to use the site, you agree to this use of cookies and data.

Hourly Weather Bajdabo

Today, 7 July, Tuesday

Time Temperature Precipitation Wind Pressure Humidity
00:00 +23°C° 0 mm 7 mps 721 mmHg 82%
01:00 +22°C° 0 mm 7 mps 721 mmHg 83%
02:00 +22°C° 0 mm 6 mps 721 mmHg 84%
03:00 +22°C° 0 mm 6 mps 721 mmHg 85%
04:00 +22°C° 0 mm 5 mps 721 mmHg 86%
05:00 +22°C° 0 mm 5 mps 721 mmHg 87%
06:00 +21°C° 0 mm 4 mps 721 mmHg 88%
07:00 +23°C° 0 mm 5 mps 722 mmHg 81%
08:00 +24°C° 0 mm 6 mps 722 mmHg 75%
09:00 +26°C° 0 mm 7 mps 723 mmHg 69%
10:00 +28°C° 0 mm 7 mps 723 mmHg 64%
11:00 +29°C° 0 mm 8 mps 722 mmHg 59%
12:00 +31°C° 0 mm 8 mps 722 mmHg 53%
13:00 +31°C° 0 mm 8 mps 721 mmHg 52%
14:00 +31°C° 0 mm 8 mps 721 mmHg 51%
15:00 +32°C° 0 mm 8 mps 720 mmHg 50%
16:00 +30°C° 0 mm 7 mps 720 mmHg 52%
17:00 +30°C° 0 mm 6 mps 720 mmHg 54%
18:00 +29°C° 0 mm 5 mps 720 mmHg 56%
19:00 +28°C° 0.1 mm 5 mps 720 mmHg 60%
20:00 +27°C° 0.1 mm 5 mps 721 mmHg 65%
21:00 +27°C° 0.1 mm 5 mps 721 mmHg 70%
22:00 +26°C° 0 mm 5 mps 721 mmHg 73%
23:00 +25°C° 0 mm 5 mps 721 mmHg 75%

Tomorrow, 8 July, Wednesday

Time Temperature Precipitation Wind Pressure Humidity
00:00 +24°C° 0 mm 6 mps 721 mmHg 78%
01:00 +24°C° 0 mm 6 mps 721 mmHg 80%
02:00 +23°C° 0 mm 6 mps 721 mmHg 83%
03:00 +23°C° 0 mm 6 mps 721 mmHg 86%
04:00 +23°C° 0 mm 6 mps 721 mmHg 86%
05:00 +23°C° 0 mm 6 mps 721 mmHg 85%
06:00 +23°C° 0 mm 6 mps 722 mmHg 85%
07:00 +24°C° 0 mm 7 mps 722 mmHg 82%
08:00 +24°C° 0 mm 7 mps 722 mmHg 79%
09:00 +26°C° 0 mm 7 mps 723 mmHg 76%
10:00 +26°C° 0 mm 7 mps 722 mmHg 73%
11:00 +27°C° 0 mm 7 mps 722 mmHg 69%
12:00 +28°C° 0 mm 7 mps 722 mmHg 66%
13:00 +29°C° 0 mm 7 mps 722 mmHg 61%
14:00 +30°C° 0 mm 7 mps 721 mmHg 57%
15:00 +32°C° 0 mm 7 mps 720 mmHg 53%
16:00 +30°C° 0 mm 6 mps 720 mmHg 54%
17:00 +30°C° 0 mm 5 mps 720 mmHg 55%
18:00 +29°C° 0 mm 5 mps 720 mmHg 56%
19:00 +28°C° 0 mm 5 mps 721 mmHg 62%
20:00 +27°C° 0 mm 5 mps 721 mmHg 69%
21:00 +26°C° 0 mm 5 mps 721 mmHg 75%
22:00 +26°C° 0 mm 5 mps 721 mmHg 78%
23:00 +25°C° 0 mm 5 mps 722 mmHg 81%

Day after tomorrow, 9 July, Thursday

Time Temperature Precipitation Wind Pressure Humidity
00:00 +25°C° 0 mm 5 mps 722 mmHg 85%
01:00 +23°C° 0 mm 5 mps 721 mmHg 86%
02:00 +23°C° 0 mm 5 mps 721 mmHg 88%
03:00 +23°C° 0 mm 5 mps 721 mmHg 90%
04:00 +23°C° 0 mm 5 mps 721 mmHg 90%
05:00 +23°C° 0 mm 5 mps 721 mmHg 90%
06:00 +23°C° 0 mm 5 mps 721 mmHg 90%
07:00 +24°C° 0 mm 6 mps 722 mmHg 85%
08:00 +26°C° 0 mm 6 mps 722 mmHg 80%
09:00 +26°C° 0 mm 7 mps 723 mmHg 75%
10:00 +28°C° 0.2 mm 7 mps 722 mmHg 69%
11:00 +29°C° 0.2 mm 7 mps 722 mmHg 64%
12:00 +30°C° 0.2 mm 7 mps 722 mmHg 59%
13:00 +32°C° 0.1 mm 7 mps 721 mmHg 56%
14:00 +32°C° 0.1 mm 7 mps 720 mmHg 53%
15:00 +33°C° 0.1 mm 6 mps 720 mmHg 50%
16:00 +32°C° 0.2 mm 6 mps 720 mmHg 55%
17:00 +29°C° 0.2 mm 7 mps 720 mmHg 59%
18:00 +28°C° 0.2 mm 7 mps 720 mmHg 64%
19:00 +28°C° 0.1 mm 6 mps 720 mmHg 68%
20:00 +27°C° 0.1 mm 6 mps 721 mmHg 72%
21:00 +26°C° 0.1 mm 6 mps 721 mmHg 76%
22:00 +24°C° 0 mm 6 mps 721 mmHg 78%
23:00 +25°C° 0 mm 5 mps 721 mmHg 80%

10 July, Friday

Time Temperature Precipitation Wind Pressure Humidity
00:00 +23°C° 0 mm 5 mps 721 mmHg 83%
01:00 +23°C° 0 mm 5 mps 721 mmHg 85%
02:00 +23°C° 0 mm 5 mps 721 mmHg 87%
03:00 +22°C° 0 mm 5 mps 720 mmHg 89%
04:00 +22°C° 0 mm 4 mps 721 mmHg 90%
05:00 +22°C° 0 mm 4 mps 721 mmHg 90%
06:00 +22°C° 0 mm 3 mps 721 mmHg 90%
07:00 +23°C° 0 mm 4 mps 722 mmHg 83%
08:00 +26°C° 0 mm 5 mps 722 mmHg 76%
09:00 +27°C° 0 mm 6 mps 723 mmHg 69%
10:00 +28°C° 0 mm 6 mps 722 mmHg 63%
11:00 +30°C° 0 mm 6 mps 722 mmHg 57%
12:00 +32°C° 0 mm 7 mps 722 mmHg 51%
13:00 +32°C° 0 mm 6 mps 721 mmHg 51%
14:00 +32°C° 0 mm 6 mps 720 mmHg 51%
15:00 +32°C° 0 mm 6 mps 719 mmHg 50%
16:00 +30°C° 0.1 mm 6 mps 719 mmHg 53%
17:00 +30°C° 0.1 mm 6 mps 720 mmHg 56%
18:00 +29°C° 0.1 mm 6 mps 720 mmHg 59%
19:00 +28°C° 0.2 mm 7 mps 720 mmHg 65%
20:00 +27°C° 0.2 mm 7 mps 721 mmHg 71%
21:00 +26°C° 0.2 mm 7 mps 721 mmHg 76%
22:00 +26°C° 0.1 mm 7 mps 721 mmHg 78%
23:00 +24°C° 0.1 mm 7 mps 721 mmHg 81%

11 July, Saturday

Time Temperature Precipitation Wind Pressure Humidity
00:00 +24°C° 0.1 mm 7 mps 721 mmHg 83%
01:00 +23°C° 0.1 mm 7 mps 721 mmHg 84%
02:00 +23°C° 0.1 mm 7 mps 721 mmHg 84%
03:00 +23°C° 0.1 mm 7 mps 721 mmHg 85%
04:00 +23°C° 0 mm 7 mps 721 mmHg 85%
05:00 +23°C° 0 mm 7 mps 721 mmHg 86%
06:00 +23°C° 0 mm 7 mps 722 mmHg 86%
07:00 +24°C° 0 mm 7 mps 722 mmHg 80%
08:00 +26°C° 0 mm 8 mps 722 mmHg 75%
09:00 +27°C° 0 mm 8 mps 723 mmHg 69%
10:00 +28°C° 0 mm 8 mps 723 mmHg 64%
11:00 +29°C° 0 mm 8 mps 722 mmHg 59%
12:00 +31°C° 0 mm 8 mps 722 mmHg 54%
13:00 +32°C° 0 mm 8 mps 721 mmHg 52%
14:00 +32°C° 0 mm 8 mps 721 mmHg 50%
15:00 +32°C° 0 mm 8 mps 720 mmHg 48%
16:00 +32°C° 0 mm 8 mps 720 mmHg 49%
17:00 +31°C° 0 mm 8 mps 720 mmHg 50%
18:00 +31°C° 0 mm 8 mps 720 mmHg 51%
19:00 +29°C° 0 mm 8 mps 720 mmHg 56%
20:00 +27°C° 0 mm 8 mps 721 mmHg 61%
21:00 +26°C° 0 mm 8 mps 721 mmHg 66%
22:00 +24°C° 0 mm 8 mps 721 mmHg 70%
23:00 +24°C° 0 mm 7 mps 721 mmHg 75%

12 July, Sunday

Time Temperature Precipitation Wind Pressure Humidity
00:00 +23°C° 0 mm 7 mps 721 mmHg 80%
01:00 +22°C° 0 mm 7 mps 721 mmHg 81%
02:00 +22°C° 0 mm 6 mps 720 mmHg 82%
03:00 +22°C° 0 mm 6 mps 720 mmHg 83%
04:00 +21°C° 0 mm 6 mps 721 mmHg 84%
05:00 +21°C° 0 mm 5 mps 721 mmHg 86%
06:00 +21°C° 0 mm 5 mps 722 mmHg 87%
07:00 +22°C° 0 mm 6 mps 722 mmHg 83%
08:00 +23°C° 0 mm 6 mps 723 mmHg 79%
09:00 +24°C° 0 mm 7 mps 723 mmHg 75%
10:00 +26°C° 0 mm 7 mps 723 mmHg 71%
11:00 +27°C° 0 mm 7 mps 722 mmHg 67%
12:00 +28°C° 0 mm 7 mps 722 mmHg 63%
13:00 +29°C° 0 mm 7 mps 722 mmHg 60%
14:00 +29°C° 0 mm 7 mps 721 mmHg 58%
15:00 +30°C° 0 mm 7 mps 720 mmHg 56%
16:00 +30°C° 0 mm 7 mps 720 mmHg 56%
17:00 +29°C° 0 mm 6 mps 720 mmHg 56%
18:00 +29°C° 0 mm 6 mps 720 mmHg 56%
19:00 +28°C° 0 mm 6 mps 721 mmHg 62%
20:00 +27°C° 0 mm 6 mps 721 mmHg 67%
21:00 +26°C° 0 mm 6 mps 721 mmHg 73%
22:00 +24°C° 0 mm 7 mps 721 mmHg 76%
23:00 +24°C° 0 mm 7 mps 721 mmHg 80%
Show more